Sault Ste Marie, MI

5:41 PM EDT on June 24, 2017 (GMT -0400)
Sault Ste Marie Municipal / Sanderson Field

Weather History for KANJ - November, 2012

Change the Weather History Date:

Thursday, November 29, 2012

  Actual Average Record
Temperature  
Mean Temperature 24 °F 29 °F  
Max Temperature 31 °F 34 °F 54 °F (1998)
Min Temperature 16 °F 23 °F -12 °F (1929)
Degree Days  
Heating Degree Days 41 36  
Month to date heating degree days 833 889  
Since 1 July heating degree days 1740 1894  
Moisture  
Dew Point 13 °F    
Average Humidity 65    
Maximum Humidity 78    
Minimum Humidity 52    
Precipitation  
Precipitation T in 0.11 in 1.12 in (1919)
Month to date precipitation 1.96 3.26  
Year to date precipitation 26.21 30.05  
Snow  
Snow T in 0.80 in 5.00 in (1929)
Month to date snowfall 17.0 14.3  
Since 1 July snowfall 22.9 15.9  
Snow Depth 8.00 in    
Sea Level Pressure  
Sea Level Pressure 30.21 in    
Wind  
Wind Speed 8 mph (NNE)    
Max Wind Speed 17 mph    
Max Gust Speed 24 mph    
Visibility 9 miles    
Events Snow    
T = Trace of Precipitation, MM = Missing Value Source: NWS Daily Summary

Daily Weather History Graph

Daily Weather History Graph

Search for Another Location

Airport or City:

Trip Planner

Search our weather history database for the weather conditions in past years. The results will help you decide how hot, cold, wet, or windy it might be!

Date:

Astronomy

Nov. 29, 2012 Rise Set
Actual Time 7:58 AM EST 4:52 PM EST
Civil Twilight 7:24 AM EST 5:27 PM EST
Nautical Twilight 6:47 AM EST 6:04 PM EST
Astronomical Twilight 6:10 AM EST 6:40 PM EST
Moon 5:54 PM EST (11/29) 8:45 AM EST (11/29)
Length of Visible Light 10h 02m
Length of Day
8h 54m
Full, 99% of the Moon is Illuminated
Nov 29
Full
Dec 6
Last Quarter
Dec 13
New
Dec 20
First Quarter
Dec 28
Full

Hourly Weather History & Observations

Time (EST) Temp. Windchill Dew Point Humidity Pressure Visibility Wind Dir Wind Speed Gust Speed Precip Events Conditions
12:55 AM 26.1 °F 15.0 °F 16.0 °F 66% 30.09 in 10.0 mi West 12.7 mph - N/A   Clear
1:55 AM 28.0 °F 16.1 °F 18.0 °F 66% 30.06 in 10.0 mi West 16.1 mph 21.9 mph N/A   Mostly Cloudy
2:34 AM 28.9 °F 18.6 °F 19.0 °F 67% 30.04 in 10.0 mi WSW 12.7 mph 19.6 mph N/A   Mostly Cloudy
2:55 AM 28.0 °F 18.6 °F 19.0 °F 69% 30.06 in 10.0 mi WSW 10.4 mph - N/A   Overcast
3:55 AM 30.9 °F 19.4 °F 24.1 °F 76% 30.07 in 10.0 mi West 17.3 mph 24.2 mph N/A   Overcast
4:11 AM 30.0 °F 20.0 °F 25.0 °F 82% 30.05 in 2.5 mi NW 12.7 mph - 0.00 in Snow Light Snow
4:19 AM 28.9 °F 21.9 °F 26.1 °F 89% 30.05 in 1.0 mi NW 6.9 mph - 0.00 in Snow Light Snow
4:26 AM 28.9 °F 20.4 °F 26.1 °F 89% 30.05 in 3.0 mi NW 9.2 mph - 0.00 in Snow Light Snow
4:55 AM 28.9 °F 20.4 °F 23.0 °F 78% 30.09 in 10.0 mi NNW 9.2 mph 17.3 mph 0.00 in   Overcast
5:55 AM 28.0 °F 21.7 °F 21.0 °F 75% 30.12 in 10.0 mi North 5.8 mph - N/A   Overcast
6:28 AM 27.0 °F 17.3 °F 19.0 °F 72% 30.10 in 10.0 mi North 10.4 mph 19.6 mph N/A   Overcast
6:55 AM 26.1 °F 15.6 °F 18.0 °F 71% 30.15 in 10.0 mi NNE 11.5 mph - N/A   Overcast
7:55 AM 24.1 °F 16.0 °F 16.0 °F 71% 30.17 in 10.0 mi NNE 6.9 mph - N/A   Overcast
8:55 AM 21.9 °F 13.4 °F 12.9 °F 68% 30.22 in 10.0 mi NE 6.9 mph - N/A   Overcast
9:55 AM 19.9 °F 10.1 °F 9.0 °F 62% 30.24 in 10.0 mi ENE 8.1 mph - N/A   Overcast
10:55 AM 21.0 °F 14.6 °F 9.0 °F 60% 30.26 in 10.0 mi NE 4.6 mph - N/A   Overcast
11:46 AM 21.0 °F 11.4 °F 10.0 °F 63% 30.21 in 10.0 mi NE 8.1 mph - N/A   Overcast
11:55 AM 19.9 °F 11.1 °F 9.0 °F 62% 30.24 in 10.0 mi NE 6.9 mph - N/A   Overcast
12:11 PM 19.9 °F 12.1 °F 8.1 °F 60% 30.21 in 10.0 mi NE 5.8 mph - N/A   Overcast
12:40 PM 21.0 °F 16.2 °F 7.0 °F 55% 30.21 in 10.0 mi NNE 3.5 mph - N/A   Overcast
12:55 PM 21.0 °F 14.6 °F 7.0 °F 55% 30.25 in 10.0 mi NNE 4.6 mph - N/A   Overcast
1:55 PM 21.0 °F - 7.0 °F 55% 30.25 in 10.0 mi Calm Calm - N/A   Overcast
2:55 PM 21.0 °F 13.4 °F 7.0 °F 55% 30.26 in 10.0 mi North 5.8 mph - N/A   Overcast
3:55 PM 21.0 °F 14.6 °F 8.1 °F 57% 30.27 in 10.0 mi North 4.6 mph - N/A   Overcast
4:55 PM 21.0 °F 13.4 °F 8.1 °F 57% 30.29 in 10.0 mi NNE 5.8 mph - N/A   Overcast
5:55 PM 19.9 °F 11.1 °F 9.0 °F 62% 30.32 in 10.0 mi NE 6.9 mph - N/A   Overcast
6:55 PM 19.0 °F 9.0 °F 9.0 °F 65% 30.35 in 10.0 mi ENE 8.1 mph - N/A   Overcast
7:55 PM 18.0 °F 7.7 °F 8.1 °F 65% 30.37 in 10.0 mi ENE 8.1 mph - N/A   Overcast
8:55 PM 17.1 °F 6.6 °F 6.1 °F 62% 30.37 in 10.0 mi ENE 8.1 mph - N/A   Overcast
9:55 PM 17.1 °F 7.6 °F 7.0 °F 65% 30.37 in 10.0 mi ENE 6.9 mph - N/A   Overcast
10:55 PM 16.0 °F 5.3 °F 7.0 °F 68% 30.39 in 10.0 mi East 8.1 mph - N/A   Overcast
11:55 PM 16.0 °F 4.4 °F 7.0 °F 68% 30.40 in 10.0 mi East 9.2 mph - N/A   Overcast